When you browse on this site, cookies collect data to enhance your experience and personalize the content and advertising you see.
Visit our Privacy Policy to learn more. By continuing to use the site, you agree to this use of cookies and data.
  • In Hungary
  • List of Countries
  • For 7 days
  • Water Temperature
  • Weather Map
  • News
  • Weather Widgets
  • user-avatar
    Login

    Hourly Weather Yablunivka

    Today, 7 April, Tuesday

    Time Temperature Precipitation Wind Pressure Humidity
    00:00 +7°C° 0 mm 1 mps 757 mmHg 42%
    01:00 +7°C° 0 mm 1 mps 757 mmHg 43%
    02:00 +6°C° 0 mm 1 mps 757 mmHg 43%
    03:00 +6°C° 0 mm 1 mps 757 mmHg 45%
    04:00 +6°C° 0 mm 1 mps 757 mmHg 47%
    05:00 +4°C° 0 mm 2 mps 757 mmHg 48%
    06:00 +6°C° 0 mm 2 mps 757 mmHg 47%
    07:00 +7°C° 0 mm 2 mps 757 mmHg 46%
    08:00 +9°C° 0 mm 3 mps 758 mmHg 44%
    09:00 +10°C° 0 mm 3 mps 758 mmHg 43%
    10:00 +11°C° 0 mm 3 mps 758 mmHg 41%
    11:00 +13°C° 0 mm 3 mps 758 mmHg 39%
    12:00 +13°C° 0 mm 3 mps 758 mmHg 38%
    13:00 +14°C° 0 mm 3 mps 758 mmHg 37%
    14:00 +14°C° 0 mm 3 mps 757 mmHg 36%
    15:00 +14°C° 0 mm 3 mps 757 mmHg 37%
    16:00 +15°C° 0 mm 2 mps 757 mmHg 38%
    17:00 +15°C° 0 mm 2 mps 756 mmHg 38%
    18:00 +13°C° 0 mm 2 mps 756 mmHg 44%
    19:00 +12°C° 0 mm 2 mps 756 mmHg 49%
    20:00 +9°C° 0 mm 2 mps 756 mmHg 55%
    21:00 +9°C° 0 mm 2 mps 756 mmHg 57%
    22:00 +8°C° 0 mm 2 mps 756 mmHg 58%
    23:00 +8°C° 0 mm 2 mps 756 mmHg 60%

    Tomorrow, 8 April, Wednesday

    Time Temperature Precipitation Wind Pressure Humidity
    00:00 +7°C° 0 mm 2 mps 756 mmHg 63%
    01:00 +7°C° 0 mm 2 mps 756 mmHg 65%
    02:00 +6°C° 0 mm 2 mps 756 mmHg 68%
    03:00 +6°C° 0 mm 2 mps 755 mmHg 69%
    04:00 +6°C° 0 mm 2 mps 755 mmHg 71%
    05:00 +5°C° 0 mm 2 mps 755 mmHg 73%
    06:00 +7°C° 0 mm 2 mps 755 mmHg 69%
    07:00 +8°C° 0 mm 2 mps 755 mmHg 64%
    08:00 +10°C° 0 mm 3 mps 754 mmHg 59%
    09:00 +11°C° 0 mm 3 mps 754 mmHg 53%
    10:00 +13°C° 0 mm 3 mps 754 mmHg 46%
    11:00 +15°C° 0 mm 4 mps 753 mmHg 39%
    12:00 +15°C° 0 mm 4 mps 753 mmHg 36%
    13:00 +17°C° 0 mm 4 mps 752 mmHg 33%
    14:00 +18°C° 0 mm 4 mps 751 mmHg 30%
    15:00 +18°C° 0 mm 4 mps 751 mmHg 30%
    16:00 +18°C° 0 mm 4 mps 750 mmHg 30%
    17:00 +17°C° 0 mm 4 mps 749 mmHg 31%
    18:00 +16°C° 0 mm 3 mps 749 mmHg 35%
    19:00 +13°C° 0 mm 3 mps 749 mmHg 39%
    20:00 +13°C° 0 mm 2 mps 749 mmHg 43%
    21:00 +12°C° 0 mm 2 mps 749 mmHg 49%
    22:00 +11°C° 0 mm 3 mps 749 mmHg 55%
    23:00 +10°C° 0 mm 3 mps 749 mmHg 61%

    Day after tomorrow, 9 April, Thursday

    Time Temperature Precipitation Wind Pressure Humidity
    00:00 +9°C° 0 mm 3 mps 748 mmHg 64%
    01:00 +8°C° 0 mm 3 mps 748 mmHg 68%
    02:00 +8°C° 0 mm 3 mps 748 mmHg 71%
    03:00 +7°C° 0 mm 3 mps 748 mmHg 75%
    04:00 +7°C° 0 mm 2 mps 748 mmHg 78%
    05:00 +6°C° 0 mm 2 mps 748 mmHg 82%
    06:00 +7°C° 0 mm 2 mps 748 mmHg 75%
    07:00 +9°C° 0 mm 2 mps 748 mmHg 69%
    08:00 +10°C° 0 mm 2 mps 748 mmHg 63%
    09:00 +12°C° 0 mm 2 mps 748 mmHg 55%
    10:00 +14°C° 0 mm 2 mps 748 mmHg 48%
    11:00 +15°C° 0 mm 2 mps 748 mmHg 40%
    12:00 +16°C° 0 mm 2 mps 747 mmHg 37%
    13:00 +17°C° 0 mm 2 mps 747 mmHg 34%
    14:00 +19°C° 0 mm 1 mps 746 mmHg 30%
    15:00 +19°C° 0 mm 1 mps 746 mmHg 30%
    16:00 +19°C° 0 mm 1 mps 746 mmHg 30%
    17:00 +19°C° 0 mm 1 mps 745 mmHg 30%
    18:00 +16°C° 0 mm 1 mps 745 mmHg 34%
    19:00 +15°C° 0 mm 1 mps 745 mmHg 38%
    20:00 +13°C° 0 mm 1 mps 745 mmHg 41%
    21:00 +13°C° 0 mm 2 mps 744 mmHg 44%
    22:00 +12°C° 0 mm 2 mps 744 mmHg 46%
    23:00 +10°C° 0 mm 3 mps 744 mmHg 48%

    10 April, Friday

    Time Temperature Precipitation Wind Pressure Humidity
    00:00 +10°C° 0 mm 3 mps 744 mmHg 50%
    01:00 +9°C° 0 mm 3 mps 743 mmHg 51%
    02:00 +9°C° 0 mm 3 mps 743 mmHg 53%
    03:00 +9°C° 0 mm 3 mps 743 mmHg 54%
    04:00 +8°C° 0 mm 3 mps 742 mmHg 55%
    05:00 +8°C° 0 mm 3 mps 742 mmHg 57%
    06:00 +10°C° 0 mm 3 mps 742 mmHg 55%
    07:00 +11°C° 0 mm 4 mps 742 mmHg 54%
    08:00 +13°C° 0 mm 4 mps 742 mmHg 52%
    09:00 +15°C° 0 mm 4 mps 742 mmHg 48%
    10:00 +16°C° 0 mm 5 mps 742 mmHg 44%
    11:00 +19°C° 0 mm 5 mps 742 mmHg 40%
    12:00 +17°C° 0.2 mm 6 mps 742 mmHg 47%
    13:00 +15°C° 0.2 mm 7 mps 741 mmHg 54%
    14:00 +14°C° 0.2 mm 7 mps 741 mmHg 61%
    15:00 +14°C° 0.1 mm 7 mps 741 mmHg 57%
    16:00 +14°C° 0.1 mm 7 mps 741 mmHg 53%
    17:00 +14°C° 0.1 mm 7 mps 741 mmHg 49%
    18:00 +11°C° 0 mm 7 mps 742 mmHg 52%
    19:00 +9°C° 0 mm 6 mps 742 mmHg 55%
    20:00 +8°C° 0 mm 6 mps 743 mmHg 58%
    21:00 +7°C° 0 mm 6 mps 743 mmHg 56%
    22:00 +5°C° 0 mm 6 mps 744 mmHg 53%
    23:00 +5°C° 0 mm 5 mps 744 mmHg 51%

    11 April, Saturday

    Time Temperature Precipitation Wind Pressure Humidity
    00:00 +3°C° 0 mm 5 mps 744 mmHg 54%
    01:00 +3°C° 0 mm 5 mps 745 mmHg 56%
    02:00 +3°C° 0 mm 4 mps 745 mmHg 59%
    03:00 +3°C° 0 mm 4 mps 745 mmHg 61%
    04:00 +3°C° 0 mm 4 mps 745 mmHg 63%
    05:00 +1°C° 0 mm 4 mps 746 mmHg 65%
    06:00 +3°C° 0 mm 5 mps 746 mmHg 61%
    07:00 +5°C° 0 mm 5 mps 746 mmHg 57%
    08:00 +5°C° 0 mm 6 mps 747 mmHg 53%
    09:00 +7°C° 0 mm 6 mps 747 mmHg 49%
    10:00 +8°C° 0 mm 6 mps 747 mmHg 45%
    11:00 +9°C° 0 mm 6 mps 747 mmHg 41%
    12:00 +10°C° 0 mm 6 mps 747 mmHg 39%
    13:00 +10°C° 0 mm 6 mps 747 mmHg 37%
    14:00 +11°C° 0 mm 6 mps 747 mmHg 36%
    15:00 +10°C° 0 mm 5 mps 747 mmHg 35%
    16:00 +10°C° 0 mm 5 mps 747 mmHg 34%
    17:00 +10°C° 0 mm 5 mps 747 mmHg 33%
    18:00 +8°C° 0 mm 4 mps 747 mmHg 37%
    19:00 +8°C° 0 mm 3 mps 747 mmHg 41%
    20:00 +7°C° 0 mm 3 mps 748 mmHg 46%
    21:00 +6°C° 0 mm 2 mps 748 mmHg 47%
    22:00 +5°C° 0 mm 2 mps 748 mmHg 49%
    23:00 +5°C° 0 mm 2 mps 748 mmHg 51%

    12 April, Sunday

    Time Temperature Precipitation Wind Pressure Humidity
    00:00 +4°C° 0 mm 2 mps 748 mmHg 53%
    01:00 +4°C° 0 mm 2 mps 748 mmHg 55%
    02:00 +4°C° 0 mm 2 mps 748 mmHg 57%
    03:00 +4°C° 0 mm 2 mps 748 mmHg 60%
    04:00 +4°C° 0 mm 1 mps 748 mmHg 63%
    05:00 +4°C° 0 mm 1 mps 748 mmHg 66%
    06:00 +5°C° 0 mm 1 mps 749 mmHg 63%
    07:00 +6°C° 0 mm 1 mps 749 mmHg 59%
    08:00 +8°C° 0 mm 1 mps 749 mmHg 56%
    09:00 +9°C° 0 mm 1 mps 749 mmHg 51%
    10:00 +10°C° 0 mm 1 mps 749 mmHg 46%
    11:00 +10°C° 0 mm 0 mps 749 mmHg 42%
    12:00 +12°C° 0 mm 1 mps 749 mmHg 39%
    13:00 +12°C° 0 mm 1 mps 748 mmHg 37%
    14:00 +13°C° 0 mm 1 mps 748 mmHg 35%
    15:00 +13°C° 0 mm 1 mps 748 mmHg 34%
    16:00 +13°C° 0 mm 1 mps 747 mmHg 34%
    17:00 +13°C° 0 mm 1 mps 747 mmHg 34%
    18:00 +12°C° 0 mm 2 mps 747 mmHg 37%
    19:00 +10°C° 0 mm 2 mps 747 mmHg 41%
    20:00 +8°C° 0 mm 2 mps 747 mmHg 45%
    21:00 +8°C° 0 mm 2 mps 747 mmHg 47%
    22:00 +7°C° 0 mm 3 mps 747 mmHg 49%
    23:00 +7°C° 0 mm 3 mps 747 mmHg 51%
    Show more